TimeEST,TemperatureF,Dew PointF,Humidity,Sea Level PressureIn,VisibilityMPH,Wind Direction,Wind SpeedMPH,Gust SpeedMPH,PrecipitationIn,Events,Conditions,WindDirDegrees,DateUTC
12:55 AM,64.4,61.7,91,30.06,10.0,NW,5.8,-,N/A,,Clear,310,2013-01-22 05:55:00
1:55 AM,63.7,61.3,92,30.05,10.0,WNW,5.8,-,N/A,,Partly Cloudy,290,2013-01-22 06:55:00
2:55 AM,63.7,61.2,91,30.04,10.0,WNW,5.8,-,N/A,,Clear,300,2013-01-22 07:55:00
3:55 AM,62.6,60.3,92,30.04,10.0,WNW,3.5,-,N/A,,Clear,290,2013-01-22 08:55:00
4:55 AM,61.7,59.7,93,30.04,10.0,WNW,4.6,-,N/A,,Clear,290,2013-01-22 09:55:00
5:25 AM,62.6,60.8,94,30.05,10.0,NW,8.1,-,N/A,,Mostly Cloudy,320,2013-01-22 10:25:00
5:30 AM,62.6,60.8,94,30.06,10.0,NW,9.2,-,N/A,,Scattered Clouds,310,2013-01-22 10:30:00
5:55 AM,62.2,60.1,93,30.06,10.0,NW,5.8,-,N/A,,Partly Cloudy,310,2013-01-22 10:55:00
6:55 AM,62.1,60.1,93,30.09,10.0,NW,9.2,-,N/A,,Clear,310,2013-01-22 11:55:00
7:55 AM,62.2,59.9,92,30.11,10.0,NW,9.2,-,N/A,,Clear,320,2013-01-22 12:55:00
8:55 AM,64.4,59.4,84,30.12,10.0,NNW,10.4,-,N/A,,Clear,340,2013-01-22 13:55:00
9:55 AM,68.2,59.0,72,30.14,10.0,North,15.0,-,N/A,,Clear,350,2013-01-22 14:55:00
10:55 AM,72.1,60.3,66,30.14,10.0,North,11.5,-,N/A,,Clear,350,2013-01-22 15:55:00
11:55 AM,74.5,61.3,63,30.13,10.0,NNW,13.8,-,N/A,,Clear,330,2013-01-22 16:55:00
2:55 PM,77.0,61.5,59,30.09,10.0,North,12.7,-,N/A,,Clear,10,2013-01-22 19:55:00
3:55 PM,76.5,60.4,58,30.10,10.0,North,16.1,-,N/A,,Partly Cloudy,350,2013-01-22 20:55:00
4:55 PM,74.8,60.1,60,30.12,10.0,NNW,12.7,-,N/A,,Partly Cloudy,330,2013-01-22 21:55:00
5:55 PM,73.2,59.4,62,30.15,10.0,NNE,10.4,-,N/A,,Mostly Cloudy,20,2013-01-22 22:55:00
6:55 PM,70.3,58.5,66,30.16,10.0,NNE,10.4,-,N/A,,Clear,20,2013-01-22 23:55:00
7:55 PM,68.9,57.6,67,30.17,10.0,North,9.2,-,N/A,,Clear,10,2013-01-23 00:55:00
8:55 PM,67.5,56.7,68,30.19,10.0,North,10.4,-,N/A,,Partly Cloudy,350,2013-01-23 01:55:00
9:55 PM,65.5,55.6,70,30.21,10.0,NNW,9.2,-,N/A,,Mostly Cloudy,340,2013-01-23 02:55:00
10:55 PM,64.2,55.0,72,30.22,10.0,NNW,9.2,-,N/A,,Scattered Clouds,340,2013-01-23 03:55:00
11:55 PM,63.0,55.0,75,30.21,10.0,North,8.1,-,N/A,,Clear,350,2013-01-23 04:55:00